User: anonymous   Login
Location: Aigremont
(47.7188°N, 3.8925°E)
Time: 07:35:53
(UTC+00:00)
Language:

Cosmos 2263 - Orbit

View from above orbital plane
View from above orbital plane
View from above satellite
View from above satellite

Ground track
Ground track

The orbit data is extracted from the following two-line orbital elements,

1 22802U 93059A   20156.55564392 -.00000359 +00000-0 -16559-3 0  9991
2 22802 070.9249 204.7840 0021377 039.7744 320.4940 14.13191875377960
Epoch (UTC): 04 June 2020 13:20:07
Eccentricity: 0.0021377
inclination: 70.9249°
perigee height: 833 km
apogee height: 864 km
right ascension of ascending node: 204.7840°
argument of perigee: 39.7744°
revolutions per day: 14.13191875
mean anomaly at epoch: 320.4940°
orbit number at epoch: 37796

The dashed part of the orbit path shows where the satellite is in the earth's shadow,  

DLR